Wind_Speed
31 35 39 41 45 48 49 51 52 59 59 58 59 56 47 48 53 55 55 55 54 49 50 56 58 61 61 64 64 66 69 70 70 68 65 65 65 66
35 38 41 44 50 54 55 57 59 62 61 60 60 54 49 52 55 57 56 60 58 54 60 61 62 62 63 66 69 72 76 74 73 69 67 67 68 70
36 42 48 57 59 58 66 61 58 60 57 58 61 57 51 55 55 58 61 61 63 61 63 64 66 68 69 71 73 78 78 78 74 70 69 70 72 74
45 32 32 40 43 43 42 56 58 55 53 57 62 61 55 60 62 66 65 64 57 66 73 74 77 77 77 75 79 78 79 78 75 74 73 71 74 78
34 36 40 43 42 43 46 47 51 53 60 59 62 60 60 62 70 76 64 60 62 69 67 74 72 74 77 84 82 81 79 78 78 75 75 76 78 80
40 43 45 46 46 48 51 53 55 58 59 60 67 77 66 63 66 64 72 69 73 73 74 70 77 80 81 83 83 83 84 81 78 79 79 80 81 81
47 48 49 50 51 52 55 57 59 61 65 68 72 71 70 75 68 71 72 79 80 79 72 78 77 83 85 85 86 84 85 86 83 81 82 83 82 79
50 52 52 54 54 56 56 57 58 59 64 64 56 71 72 68 74 74 78 73 84 83 79 79 87 89 89 92 92 92 91 87 85 84 84 82 79 77
55 56 57 58 58 60 60 61 60 62 63 62 71 71 78 86 78 73 81 84 86 87 87 89 94 95 94 97 97 93 92 90 86 83 81 77 74 74
58 60 61 61 62 63 64 65 65 64 66 69 70 72 74 77 80 81 87 87 86 88 93 94 96 98 101 105 100 95 91 88 85 80 76 74 73 76
59 61 63 65 66 66 66 67 68 69 69 70 72 73 77 82 86 87 87 89 91 95 101 102 99 105 105 103 101 96 91 87 81 77 73 73 78 79
63 65 64 65 65 66 66 68 70 71 72 72 74 79 83 86 88 89 92 93 95 99 103 107 110 109 105 102 99 94 88 83 78 75 77 81 75 70
62 62 63 63 64 64 65 67 69 71 74 77 80 83 86 89 92 95 97 100 103 105 110 113 109 107 106 100 96 89 83 79 82 82 76 72 66 62
60 60 61 61 63 66 69 72 75 78 81 84 86 89 92 94 97 99 102 106 108 110 110 110 109 106 103 98 91 89 88 86 81 75 70 64 60 55
61 60 63 67 70 74 78 80 83 85 88 91 94 96 99 102 104 106 109 111 113 113 113 112 111 108 104 101 95 87 82 76 72 68 63 59 55 51
65 69 73 76 80 84 86 87 89 92 95 99 102 105 108 111 113 115 116 118 118 116 115 112 107 104 98 93 89 81 75 68 64 61 57 53 50 47
70 73 77 82 86 88 91 95 98 101 104 108 111 114 116 118 119 120 120 119 117 113 108 105 100 96 91 86 81 74 67 62 58 54 50 47 43 41
77 81 84 87 91 95 99 103 107 110 113 115 116 118 118 119 117 115 113 111 108 104 100 96 92 88 83 77 73 66 60 54 49 46 41 41 37 33
82 86 90 94 98 103 107 111 113 115 115 115 114 112 110 109 107 106 103 100 95 91 86 83 80 76 72 66 60 57 50 45 42 39 37 34 28 27
88 93 98 102 107 111 114 115 114 111 107 105 103 101 99 96 92 87 82 79 75 72 69 66 64 62 58 52 47 45 43 36 34 31 27 28 27 33
96 102 107 110 112 112 108 103 100 97 95 91 87 83 79 76 71 67 63 60 56 53 48 46 46 44 41 38 33 34 35 29 30 31 29 26 25 24
104 107 109 109 104 98 94 92 87 82 77 73 69 66 62 58 53 49 45 41 38 35 32 31 31 29 26 22 21 25 22 25 29 32 28 29 28 20
107 106 101 95 91 87 81 76 72 67 63 59 56 53 47 42 37 33 29 26 24 22 20 20 18 16 14 13 17 20 23 29 40 29 25 26 26 22
Wind_Direction
273 275 277 277 275 275 273 270 273 278 282 281 282 285 279 291 287 287 288 287 283 285 293 296 298 297 293 292 293 297 300 298 296 294 291 289 289 288
279 279 284 281 277 273 271 270 275 276 274 279 282 277 282 286 288 286 288 287 279 281 295 296 295 295 294 296 294 292 297 299 298 294 291 290 289 290
290 287 288 289 291 275 275 278 282 280 271 280 284 273 285 284 285 287 289 289 282 281 292 295 291 290 293 296 297 294 295 299 298 292 291 291 291 291
285 294 290 290 291 287 286 281 279 282 279 275 281 271 290 288 288 289 287 288 281 282 285 289 293 288 295 298 294 297 298 298 294 291 292 292 292 293
289 288 282 282 285 286 283 278 272 279 281 291 275 276 287 289 289 289 285 288 287 296 294 292 291 295 292 296 293 294 297 296 293 293 293 293 295 294
285 283 283 282 283 283 283 280 278 280 284 281 278 283 285 283 284 281 283 284 293 291 296 290 290 296 295 293 294 295 296 295 296 293 294 295 295 294
284 282 282 281 280 280 280 277 280 281 280 287 280 278 278 287 283 283 282 285 295 286 286 295 292 290 290 291 293 293 293 295 296 296 295 295 294 292
280 280 281 281 282 283 282 282 278 280 282 293 272 286 279 277 280 282 282 277 292 288 293 286 287 290 289 291 295 293 295 295 295 295 294 294 292 292
283 285 286 287 287 286 285 284 283 284 280 279 279 282 277 279 290 285 285 288 284 288 284 284 287 286 286 291 295 295 294 294 295 294 293 292 292 294
286 287 287 287 287 286 286 285 283 282 281 280 282 282 281 280 286 277 282 287 284 283 285 286 288 287 287 289 293 293 294 295 295 293 292 293 294 296
284 283 283 285 286 286 285 285 286 287 288 288 287 285 281 282 285 282 282 284 284 285 284 284 285 287 290 291 293 293 293 292 292 293 293 295 297 297
284 285 285 285 284 284 285 286 287 287 288 286 284 284 281 281 284 285 284 283 283 282 283 285 288 289 289 290 292 292 292 292 294 294 295 298 295 294
288 288 288 288 289 289 289 290 290 289 288 287 286 285 285 285 285 284 284 283 284 283 283 285 286 287 288 289 290 291 292 292 293 296 294 292 292 291
290 290 291 292 293 294 295 295 294 292 291 290 289 288 288 286 285 284 282 282 282 283 284 285 286 287 288 289 290 290 293 294 292 290 290 289 288 286
289 289 291 294 297 298 298 297 295 293 292 291 290 288 287 286 285 284 284 283 283 284 284 284 285 286 288 289 290 291 289 289 289 289 287 285 285 282
291 293 293 294 297 297 297 295 294 293 292 291 290 288 287 286 285 284 283 283 283 283 284 285 287 287 287 287 286 286 285 284 282 282 281 279 277 276
295 297 297 297 296 296 296 295 294 293 292 291 290 288 287 286 284 283 283 283 283 285 285 285 285 285 284 284 283 283 281 280 278 276 273 274 271 267
298 297 297 297 297 296 296 295 295 294 293 292 290 288 287 286 286 287 287 287 286 285 284 283 282 281 281 281 282 280 278 276 271 268 262 262 260 253
299 299 298 298 297 298 298 297 296 295 294 292 291 292 292 290 289 288 287 286 285 284 282 281 280 279 278 277 275 275 272 266 262 257 248 246 238 245
300 300 300 301 301 301 300 299 298 297 297 297 296 295 294 293 292 291 288 286 284 282 281 280 278 277 276 274 270 266 264 255 247 238 226 217 219 233
303 304 304 304 304 303 302 301 301 301 301 300 301 300 299 298 297 295 291 288 286 285 283 280 278 276 273 270 263 251 251 237 225 211 200 203 225 231
307 307 307 306 305 305 305 305 305 305 306 306 306 306 306 305 303 300 297 293 289 286 282 279 276 274 270 261 245 234 229 203 190 177 201 206 220 241
310 309 308 308 308 308 308 309 310 310 311 312 313 315 316 314 312 309 305 300 294 288 282 276 271 265 250 220 203 194 180 176 172 184 198 209 226 242
Height
5727 5727 5726 5726 5725 5721 5718 5716 5713 5710 5707 5706 5702 5699 5695 5694 5691 5687 5684 5680 5676 5673 5670 5667 5662 5658 5654 5649 5645 5640 5635 5629 5623 5617 5612 5606 5602 5598
5720 5719 5717 5716 5713 5709 5707 5704 5701 5696 5689 5692 5691 5685 5682 5679 5676 5673 5669 5665 5661 5658 5654 5650 5647 5643 5638 5633 5628 5623 5617 5611 5605 5599 5593 5588 5583 5578
5711 5709 5708 5704 5699 5694 5693 5691 5689 5685 5678 5680 5675 5672 5667 5664 5662 5657 5653 5648 5645 5643 5638 5634 5630 5626 5620 5615 5609 5603 5598 5592 5584 5579 5573 5568 5562 5556
5702 5699 5697 5694 5689 5686 5682 5679 5679 5674 5668 5667 5662 5656 5651 5649 5645 5641 5637 5632 5629 5625 5621 5615 5611 5606 5600 5594 5589 5582 5576 5570 5564 5559 5553 5547 5540 5534
5691 5689 5688 5684 5680 5676 5672 5668 5665 5661 5657 5652 5645 5641 5637 5632 5628 5621 5618 5613 5609 5604 5600 5593 5589 5584 5579 5573 5568 5562 5557 5550 5544 5538 5532 5525 5519 5511
5682 5679 5676 5672 5668 5663 5659 5656 5652 5649 5644 5637 5634 5626 5622 5617 5613 5607 5600 5594 5589 5584 5579 5574 5569 5563 5558 5552 5547 5541 5535 5530 5523 5516 5509 5503 5496 5489
5671 5668 5664 5660 5656 5652 5647 5643 5639 5635 5631 5622 5615 5611 5607 5602 5596 5591 5584 5577 5571 5565 5561 5555 5547 5541 5536 5531 5525 5518 5512 5507 5500 5494 5487 5480 5473 5466
5659 5654 5650 5647 5643 5638 5633 5628 5625 5619 5615 5605 5597 5597 5591 5584 5578 5571 5566 5557 5552 5545 5539 5536 5524 5520 5513 5508 5502 5494 5488 5483 5476 5470 5463 5457 5451 5444
5643 5641 5637 5633 5628 5623 5617 5612 5607 5603 5597 5592 5586 5580 5573 5568 5560 5552 5547 5540 5533 5524 5517 5515 5503 5498 5490 5484 5479 5469 5460 5457 5452 5446 5440 5435 5429 5422
5629 5624 5619 5614 5609 5605 5599 5593 5588 5583 5578 5573 5567 5561 5554 5548 5542 5534 5526 5518 5511 5502 5491 5489 5481 5475 5468 5460 5454 5446 5436 5430 5427 5422 5417 5411 5405 5399
5614 5609 5603 5598 5592 5586 5581 5575 5569 5563 5557 5551 5545 5539 5532 5526 5519 5511 5503 5495 5489 5481 5467 5457 5458 5447 5443 5436 5428 5421 5415 5407 5405 5400 5394 5389 5383 5376
5597 5591 5585 5580 5574 5568 5562 5556 5549 5543 5537 5531 5524 5517 5510 5503 5495 5487 5479 5470 5461 5455 5443 5432 5426 5415 5415 5410 5404 5395 5390 5386 5380 5376 5373 5368 5361 5354
5579 5573 5567 5561 5555 5548 5542 5535 5528 5522 5515 5508 5501 5493 5485 5477 5469 5460 5451 5443 5434 5426 5417 5401 5401 5391 5379 5385 5380 5370 5364 5361 5358 5354 5349 5344 5340 5334
5561 5555 5548 5542 5535 5529 5521 5514 5507 5499 5491 5482 5474 5466 5457 5448 5440 5431 5422 5412 5402 5394 5386 5373 5367 5359 5352 5351 5356 5347 5341 5336 5331 5330 5325 5321 5319 5317
5544 5537 5530 5524 5516 5508 5501 5492 5483 5474 5464 5455 5446 5436 5427 5417 5407 5398 5389 5378 5369 5359 5351 5342 5336 5329 5323 5322 5324 5327 5318 5314 5310 5305 5305 5301 5299 5296
5526 5519 5511 5503 5495 5485 5476 5468 5458 5448 5438 5427 5416 5405 5394 5383 5372 5361 5351 5341 5332 5324 5315 5308 5303 5298 5296 5294 5291 5298 5294 5293 5287 5284 5281 5282 5280 5280
5508 5499 5491 5482 5471 5461 5451 5440 5430 5419 5407 5395 5381 5368 5356 5344 5333 5321 5311 5302 5294 5288 5282 5274 5269 5267 5264 5265 5266 5267 5268 5267 5265 5265 5262 5263 5264 5264
5487 5478 5468 5458 5447 5435 5423 5411 5397 5383 5371 5357 5342 5327 5314 5301 5290 5280 5269 5262 5256 5251 5245 5240 5236 5234 5234 5236 5236 5240 5241 5243 5243 5245 5246 5247 5249 5251
5465 5454 5444 5433 5420 5407 5392 5376 5361 5344 5328 5314 5300 5286 5273 5261 5249 5240 5231 5224 5219 5214 5210 5207 5204 5203 5205 5210 5211 5212 5217 5220 5223 5228 5232 5235 5239 5243
5439 5428 5416 5402 5388 5371 5355 5338 5321 5305 5289 5275 5261 5248 5234 5223 5213 5204 5196 5190 5185 5182 5181 5178 5177 5177 5180 5185 5190 5190 5195 5203 5207 5215 5221 5226 5232 5234
5412 5398 5382 5367 5351 5334 5317 5301 5286 5272 5257 5243 5229 5216 5204 5194 5184 5176 5170 5164 5160 5158 5158 5157 5156 5158 5161 5164 5170 5172 5177 5187 5195 5203 5212 5219 5225 5229
5381 5365 5349 5333 5316 5300 5285 5271 5256 5243 5231 5218 5206 5195 5184 5173 5165 5157 5151 5147 5144 5142 5142 5142 5143 5145 5148 5153 5157 5161 5168 5177 5187 5199 5207 5214 5219 5223
5350 5334 5317 5302 5288 5274 5259 5246 5234 5223 5212 5201 5191 5180 5170 5161 5152 5146 5141 5137 5135 5133 5133 5134 5135 5138 5142 5146 5150 5157 5165 5174 5185 5195 5203 5210 5214 5218